Content
SEND FEEDBACK

Daily
Averages
Monthly
Summary
United States of America

WIBAUX, MONTANA


Home > North America > United States > Montana
Elevation: 2732 feet     Latitude: 46 59N     Longitude: 104 09W

WEATHER
 
SELECT A DAY
Number of Records: 86,938;   Date Range: 11/18/10 - 9/14/14
 
SHARE

PRINT THIS DATA

[ ← Previous Day ]
WEATHER ALMANAC - FEBRUARY 13, 2013
[ Next Day → ]
[ °C ]   °F
Weather ElementAverageHighLow
Temperature33.8 °F39.2 °F (1:15 pm)28.4 °F (9:35 pm)
Dewpoint27.8 °F32 °F (7:15 am)21.2 °F (10:35 pm)
Humidity78.8 %100 % (7:35 am)69 % (8:55 pm)
Barometer29.73 in29.88 in (11:55 pm)29.63 in (5:35 am)
Wind Speed18.6 mph26.5 mph (8:35 pm)
Wind Gust34.5 mph (8:55 pm)
Weather ElementAverage
Visibility9.7 mi
Wind DirectionWNW (284.9 °)

Weather ElementTotal
Precipitation0.04 in
Heating Degree Days31.2 (Base 65)
Averaged from 71 records on February 13, 2013
WEATHER CONDITIONS BREAKOUT
WIND DIRECTION BREAKOUT
WEATHER BY HOUR - FEBRUARY 13, 2013
[ °C ]   °F
Local TimeTemperatureDewpointHumidityBarometerVisibilityWind DirectionWind SpeedGust SpeedPrecipitationEventsConditions
12:35 AM32.0 °F24.8 °F75 %29.75 in10.0 miSW (230°)10.4 mphPartly Cloudy
12:55 AM32.0 °F24.8 °F75 %29.73 in10.0 miSW (230°)11.5 mphClear
1:15 AM32.0 °F26.6 °F80 %29.72 in10.0 miSW (220°)11.5 mphClear
1:35 AM32.0 °F26.6 °F80 %29.71 in10.0 miSW (230°)15.0 mphScattered Clouds
1:55 AM32.0 °F26.6 °F80 %29.70 in10.0 miSW (230°)11.5 mphOvercast
2:15 AM32.0 °F26.6 °F80 %29.69 in10.0 miWSW (240°)13.8 mph19.6 mphMostly Cloudy
2:35 AM32.0 °F26.6 °F80 %29.69 in10.0 miWSW (250°)17.3 mphMostly Cloudy
2:55 AM32.0 °F26.6 °F80 %29.68 in10.0 miWSW (250°)17.3 mph21.9 mphOvercast
3:15 AM32.0 °F26.6 °F80 %29.67 in10.0 miWSW (250°)16.1 mph20.7 mphOvercast
3:35 AM32.0 °F26.6 °F80 %29.66 in10.0 miWest (260°)15.0 mph23.0 mphOvercast
3:55 AM32.0 °F26.6 °F80 %29.66 in10.0 miWest (260°)15.0 mphOvercast
4:15 AM32.0 °F26.6 °F80 %29.65 in10.0 miWSW (250°)17.3 mphOvercast
4:35 AM32.0 °F26.6 °F80 %29.65 in10.0 miWest (260°)15.0 mphOvercast
4:55 AM33.8 °F26.6 °F75 %29.65 in10.0 miWest (260°)18.4 mphOvercast
5:15 AM32.0 °F26.6 °F80 %29.64 in10.0 miWSW (250°)12.7 mphOvercast
5:35 AM32.0 °F26.6 °F80 %29.63 in10.0 miWest (260°)15.0 mphOvercast
5:55 AM33.8 °F26.6 °F75 %29.63 in10.0 miWest (260°)16.1 mphOvercast
6:15 AM33.8 °F26.6 °F75 %29.63 in10.0 miWest (270°)18.4 mph21.9 mphOvercast
6:35 AM35.6 °F28.4 °F75 %29.63 in10.0 miWest (280°)24.2 mph31.1 mphOvercast
6:55 AM35.6 °F30.2 °F81 %29.63 in10.0 miWest (280°)21.9 mph27.6 mphOvercast
7:15 AM35.6 °F32.0 °F87 %29.64 in7.0 miWNW (290°)23.0 mph32.2 mphMostly Cloudy
7:35 AM32.0 °F32.0 °F100 %29.65 in4.0 miWNW (290°)20.7 mph29.9 mph0.02 inSnowLight Snow
7:55 AM33.8 °F32.0 °F93 %29.65 in10.0 miWNW (290°)20.7 mph25.3 mph0.02 inMostly Cloudy
8:15 AM33.8 °F32.0 °F93 %29.65 in10.0 miWest (270°)15.0 mphMostly Cloudy
8:35 AM35.6 °F32.0 °F87 %29.65 in10.0 miWest (280°)17.3 mph21.9 mphOvercast
8:55 AM35.6 °F32.0 °F87 %29.65 in10.0 miWNW (290°)24.2 mphMostly Cloudy
9:15 AM35.6 °F30.2 °F81 %29.65 in10.0 miWest (280°)21.9 mph27.6 mphMostly Cloudy
9:35 AM37.4 °F30.2 °F75 %29.66 in10.0 miWNW (290°)24.2 mph29.9 mphPartly Cloudy
9:55 AM37.4 °F32.0 °F81 %29.67 in10.0 miWNW (290°)18.4 mph25.3 mphClear
10:15 AM37.4 °F30.2 °F75 %29.67 in10.0 miWNW (290°)21.9 mph27.6 mphClear
10:35 AM37.4 °F30.2 °F75 %29.68 in10.0 miWNW (290°)21.9 mph26.5 mphClear
10:55 AM37.4 °F30.2 °F75 %29.68 in10.0 miWNW (290°)18.4 mph26.5 mphPartly Cloudy
11:15 AM37.4 °F28.4 °F70 %29.68 in2.5 miWNW (290°)23.0 mph28.8 mphHaze
11:35 AM37.4 °F28.4 °F70 %29.69 in10.0 miWNW (290°)20.7 mph25.3 mphMostly Cloudy
11:55 AM37.4 °F28.4 °F70 %29.70 in10.0 miWNW (300°)21.9 mph31.1 mphMostly Cloudy
12:15 PM35.6 °F32.0 °F87 %29.69 in7.0 miWNW (290°)17.3 mph29.9 mphSnowLight Snow
12:35 PM35.6 °F32.0 °F87 %29.69 in10.0 miWest (280°)17.3 mph23.0 mphMostly Cloudy
12:55 PM37.4 °F32.0 °F81 %29.70 in10.0 miWNW (290°)19.6 mph24.2 mphMostly Cloudy
1:15 PM39.2 °F30.2 °F70 %29.71 in10.0 miWNW (300°)24.2 mph32.2 mphScattered Clouds
1:35 PM37.4 °F30.2 °F75 %29.72 in10.0 miWNW (300°)20.7 mph28.8 mphMostly Cloudy
1:55 PM37.4 °F32.0 °F81 %29.72 in10.0 miNW (310°)12.7 mph18.4 mphOvercast
2:15 PM37.4 °F30.2 °F75 %29.72 in10.0 miWNW (300°)15.0 mph20.7 mphOvercast
2:35 PM37.4 °F30.2 °F75 %29.73 in10.0 miNW (310°)20.7 mph26.5 mphOvercast
2:55 PM37.4 °F28.4 °F70 %29.74 in10.0 miNW (310°)19.6 mph27.6 mphMostly Cloudy
3:15 PM37.4 °F30.2 °F75 %29.75 in10.0 miWNW (300°)13.8 mphOvercast
3:35 PM37.4 °F30.2 °F75 %29.75 in10.0 miNW (310°)19.6 mph23.0 mphOvercast
3:55 PM37.4 °F28.4 °F70 %29.76 in10.0 miNW (310°)20.7 mph24.2 mphOvercast
4:15 PM35.6 °F28.4 °F75 %29.77 in10.0 miNW (310°)19.6 mph26.5 mphOvercast
4:35 PM35.6 °F28.4 °F75 %29.78 in10.0 miNW (310°)20.7 mph28.8 mphOvercast
4:55 PM35.6 °F28.4 °F75 %29.79 in10.0 miNW (310°)17.3 mph29.9 mphOvercast
5:15 PM35.6 °F28.4 °F75 %29.80 in10.0 miNW (310°)19.6 mph24.2 mphOvercast
5:35 PM35.6 °F28.4 °F75 %29.80 in10.0 miNW (310°)18.4 mph26.5 mphOvercast
5:55 PM33.8 °F28.4 °F81 %29.81 in10.0 miNW (310°)19.6 mph25.3 mphOvercast
6:15 PM33.8 °F28.4 °F81 %29.82 in10.0 miNW (310°)21.9 mph27.6 mphOvercast
6:35 PM32.0 °F28.4 °F87 %29.83 in10.0 miNW (310°)18.4 mph26.5 mphMostly Cloudy
6:55 PM32.0 °F28.4 °F87 %29.83 in10.0 miWNW (300°)17.3 mph26.5 mphMostly Cloudy
7:15 PM32.0 °F28.4 °F87 %29.83 in10.0 miWNW (300°)15.0 mphPartly Cloudy
7:35 PM32.0 °F28.4 °F87 %29.84 in10.0 miWNW (290°)16.1 mph21.9 mphClear
7:55 PM32.0 °F28.4 °F87 %29.85 in10.0 miWNW (300°)21.9 mph26.5 mphPartly Cloudy
8:15 PM32.0 °F26.6 °F80 %29.84 in10.0 miWNW (300°)18.4 mph24.2 mphClear
8:35 PM32.0 °F26.6 °F80 %29.85 in10.0 miWNW (290°)26.5 mph32.2 mphPartly Cloudy
8:55 PM32.0 °F23.0 °F69 %29.86 in10.0 miNW (310°)25.3 mph34.5 mphMostly Cloudy
9:15 PM30.2 °F23.0 °F75 %29.86 in10.0 miNW (310°)18.4 mph26.5 mphMostly Cloudy
9:35 PM28.4 °F23.0 °F80 %29.87 in10.0 miNW (310°)15.0 mph24.2 mphMostly Cloudy
9:55 PM28.4 °F23.0 °F80 %29.87 in10.0 miWNW (300°)10.4 mphOvercast
10:15 PM28.4 °F23.0 °F80 %29.87 in10.0 miWNW (300°)18.4 mph23.0 mphMostly Cloudy
10:35 PM28.4 °F21.2 °F74 %29.87 in10.0 miWNW (300°)25.3 mph33.4 mphPartly Cloudy
10:55 PM28.4 °F21.2 °F74 %29.87 in10.0 miWNW (300°)21.9 mph29.9 mphMostly Cloudy
11:15 PM28.4 °F21.2 °F74 %29.87 in10.0 miWNW (300°)21.9 mph28.8 mphOvercast
11:35 PM28.4 °F21.2 °F74 %29.87 in10.0 miWNW (300°)21.9 mph32.2 mphOvercast
11:55 PM28.4 °F21.2 °F74 %29.88 in10.0 miWNW (290°)20.7 mph31.1 mphOvercast
Hourly data recorded from K20U, located miles away from Wibaux, Montana







STORIES FROM OUR PARTNERS